Torna al catalogo

STARLINK-32698

AttivoComunicazioniVLEO
NORAD 62312·PAYLOAD·🇺🇸 United States

Lanciato Dec 13, 2024 da Vandenberg Space Force Base

Loading…

Prossimi Passaggi (prossime 24 ore)

TLE

AggiornatoSource: CelesTrak SupGP

Epoca: Sep 15, 2026, 03:31 UTC

1 62312C 24239M   26258.14701389  .00034989  00000+0  10341-2 0  2581
2 62312  53.1592  30.5448 0001178  90.1174  71.7790 15.34363903    13

Traccia STARLINK-32698 in tempo reale con AllMySat

Download on the App Store